Satellite: AEROCUB3
Catalog number: 35005
Epoch time:      10086.08240581
Element set:     258
Inclination:      040.4768 deg
RA of node:       341.9772 deg
Eccentricity:    0.0017676
Arg of perigee:   130.7388 deg
Mean anomaly:     229.4966 deg
Mean motion:   15.46144193 rev/day
Decay rate:     3.0629e-04 rev/day^2
Epoch rev:            4801
Checksum:              309

Satellite: DRAGNSAT
Catalog number: 35690
Epoch time:      10076.22711312
Element set:     316
Inclination:      051.6170 deg
RA of node:       315.4586 deg
Eccentricity:    0.0004999
Arg of perigee:   310.9891 deg
Mean anomaly:     057.3269 deg
Mean motion:   16.42150010 rev/day
Decay rate:   5.715194e-02 rev/day^2
Epoch rev:            3656
Checksum:              289

Satellite: POLLUX
Catalog number: 35693
Epoch time:      10085.91699132
Element set:     351
Inclination:      051.6247 deg
RA of node:       266.2346 deg
Eccentricity:    0.0007410
Arg of perigee:   311.5608 deg
Mean anomaly:     051.0772 deg
Mean motion:   16.28668914 rev/day
Decay rate:   1.498737e-02 rev/day^2
Epoch rev:            3805
Checksum:              312

Satellite: CASTOR
Catalog number: 35694
Epoch time:      10086.90666055
Element set:     245
Inclination:      051.6370 deg
RA of node:       271.7158 deg
Eccentricity:    0.0003790
Arg of perigee:   232.9034 deg
Mean anomaly:     127.1627 deg
Mean motion:   15.91173805 rev/day
Decay rate:     5.4193e-04 rev/day^2
Epoch rev:            3807
Checksum:              298

Satellite: METEOR-M
Catalog number: 35865
Epoch time:      10086.15126556
Element set:     159
Inclination:      098.7684 deg
RA of node:       140.5016 deg
Eccentricity:    0.0001647
Arg of perigee:   234.8739 deg
Mean anomaly:     125.2228 deg
Mean motion:   14.21829257 rev/day
Decay rate:       1.76e-06 rev/day^2
Epoch rev:            2706
Checksum:              303

Satellite: RS-38
Catalog number: 35869
Epoch time:      10086.13146561
Element set:     162
Inclination:      098.7670 deg
RA of node:       140.5077 deg
Eccentricity:    0.0003742
Arg of perigee:   239.4830 deg
Mean anomaly:     120.5940 deg
Mean motion:   14.21977911 rev/day
Decay rate:       1.76e-06 rev/day^2
Epoch rev:            2706
Checksum:              301

/EX


_______________________________________________
Via the Keps mailing list courtesy of AMSAT-NA
http://amsat.org/mailman/listinfo/keps

--- ViaMAIL!/WC v1.60d
 * Origin: Chowdanet (401-724-4410) telnet://chowdanet.com  (1:323/120)